sat.trackr.live / text

‹ back to catalog

STARLINK-5527

NORAD 56497 · 2023-064BB

PAYLOAD ACTIVE UNKNOWN

§ Identity

Operator
Country
US
Launch date
2023-05-10
Launch site
AFWTR
Launch vehicle
Mass (kg)
RCS (m²)

Purposes: comms

External: N2YO · Heavens-Above · Gunter

§ Orbital elements

Epoch: 2026-09-20T13:10:16.208544Z

Period
96.11 min
Inclination
69.9994°
Eccentricity
0.0003662
Mean motion
14.98330790 rev/d
Perigee alt
569.5 km
Apogee alt
574.6 km
Semi-major
6,950.2 km
B*
3.4185e-5
RAAN
333.0237°
Arg perigee
269.6390°
Mean anomaly
90.4349°
Rev number
18,542

§ Raw data

STARLINK-55271 56497U 23064BB  26263.54879871  .00000315  00000+0  34185-4 0  99972 56497  69.9994 333.0237 0003662 269.6390  90.4349 14.98330790185425

JSON: /api/v1/satellites/56497 · /tle

For live sub-satellite position, see the globe view (requires WebGL).

§ Visibility from observer

Set your observer location to see the next 7 days of passes ≥ 10°. The values pass through the URL so the page stays shareable.

No JS? Fill the form by hand. The geolocation button needs JavaScript.